Date String (YYYY-MM-DD hh:mm:ss) UTC,Instrument flags,absolute air pressure of the measurement (hPa),sample flow rate (lpm),inlet stack bypass flow (lpm),air temperature of the measurement (°C),ambient temperature measured by the external sensor (°C),aerosol sample conditioner tube jacket temperature (°C),OPC LED temperature (°C),internal box temperature (°C),relative humidity of the measurement (%),span deviation,mass concentration of particles derived from Lorenz-Mie calculation of OPC scattering (μg/m³),mass concentration of particles derived from Lorenz-Mie calculation of OPC scattering (μg/m³),mass concentration of particles derived from Lorenz-Mie calculation of OPC scattering (μg/m³)
DateTimeUTC,F1_M11,P_M11,Q1_M11,Q2_M11,T1_M11,T2_M11,T3_M11,T4_M11,T5_M11,U1_M11,ZSPAN_M11,X0_M11,X2_M11,X1_M11
2023-10-17 00:00:00,SystemResetWarning,0834.5,4.99,000.00,028.5,025.9,000.0,036.7,030.2,14.5,0000.0,0014.40,0003.48,0002.31
2023-10-17 00:01:00,SystemResetWarning,0834.5,5.00,000.00,028.4,024.2,000.0,036.7,029.9,14.6,0000.0,0014.35,0003.43,0002.30
2023-10-17 00:02:00,SystemResetWarning,0834.5,5.01,000.00,028.3,024.0,000.0,036.6,029.8,14.7,0000.0,0013.64,0003.42,0002.30
2023-10-17 00:03:00,SystemResetWarning,0834.5,5.01,000.00,028.2,024.3,000.0,036.6,029.6,14.8,0000.0,0011.54,0003.38,0002.29
2023-10-17 00:04:00,SystemResetWarning,0834.5,5.00,000.00,028.1,024.8,000.0,036.6,029.6,14.9,0000.0,0011.08,0003.40,0002.30
2023-10-17 00:05:00,SystemResetWarning,0834.5,5.00,000.00,028.1,025.2,000.0,036.6,029.7,15.0,0000.0,0011.24,0003.39,0002.31
2023-10-17 00:06:00,SystemResetWarning,0834.5,5.00,000.00,028.1,025.7,000.0,036.6,029.8,15.0,0000.0,0011.21,0003.37,0002.30
2023-10-17 00:07:00,SystemResetWarning,0834.5,5.00,000.00,028.1,026.0,000.0,036.6,029.8,15.0,0000.0,0010.96,0003.37,0002.29
2023-10-17 00:08:00,SystemResetWarning,0834.5,5.01,000.00,028.2,026.4,000.0,036.6,029.9,15.0,0000.0,0011.98,0003.40,0002.29
2023-10-17 00:09:00,SystemResetWarning,0834.6,5.00,000.00,028.2,026.6,000.0,036.6,030.0,15.0,0000.0,0011.85,0003.38,0002.28
2023-10-17 00:10:00,SystemResetWarning,0834.7,4.99,000.00,028.2,026.9,000.0,036.6,030.0,15.0,0000.0,0011.10,0003.32,0002.27
2023-10-17 00:11:00,SystemResetWarning,0834.9,5.00,000.00,028.3,027.1,000.0,036.6,030.1,14.9,0000.0,0011.38,0003.36,0002.29
2023-10-17 00:12:00,SystemResetWarning,0835.0,5.00,000.00,028.3,027.2,000.0,036.7,030.2,14.9,0000.0,0011.67,0003.43,0002.30
2023-10-17 00:13:00,SystemResetWarning,0835.0,5.00,000.00,028.4,027.4,000.0,036.7,030.2,14.8,0000.0,0011.84,0003.47,0002.32
2023-10-17 00:14:00,SystemResetWarning,0835.0,5.00,000.00,028.4,027.5,000.0,036.7,030.3,14.8,0000.0,0012.72,0003.51,0002.34
2023-10-17 00:15:00,SystemResetWarning,0834.9,5.00,000.00,028.5,027.6,000.0,036.7,030.3,14.7,0000.0,0012.90,0003.49,0002.33
2023-10-17 00:16:00,SystemResetWarning,0834.9,5.00,000.00,028.5,027.6,000.0,036.8,030.4,14.6,0000.0,0012.93,0003.53,0002.33
2023-10-17 00:17:00,SystemResetWarning,0834.7,4.98,000.00,028.5,026.0,000.0,036.8,030.2,14.6,0000.0,0012.87,0003.58,0002.34
2023-10-17 00:18:00,SystemResetWarning,0834.5,5.02,000.00,028.4,024.9,000.0,036.7,030.0,14.6,0000.0,0013.87,0003.62,0002.36
2023-10-17 00:19:00,SystemResetWarning,0834.5,5.01,000.00,028.4,024.9,000.0,036.7,029.9,14.6,0000.0,0014.30,0003.64,0002.37
2023-10-17 00:20:00,SystemResetWarning,0834.5,5.00,000.00,028.3,025.2,000.0,036.7,029.8,14.7,0000.0,0014.67,0003.67,0002.39
2023-10-17 00:21:00,SystemResetWarning,0834.5,5.00,000.00,028.3,025.6,000.0,036.7,029.9,14.8,0000.0,0015.77,0003.73,0002.40
2023-10-17 00:22:00,SystemResetWarning,0834.9,5.00,000.00,028.3,026.0,000.0,036.7,029.9,14.8,0000.0,0016.11,0003.73,0002.40
2023-10-17 00:23:00,SystemResetWarning,0835.0,5.00,000.00,028.3,026.3,000.0,036.7,030.0,14.7,0000.0,0015.98,0003.72,0002.41
2023-10-17 00:24:00,SystemResetWarning,0834.7,5.00,000.00,028.3,026.6,000.0,036.7,030.1,14.7,0000.0,0016.40,0003.74,0002.39
2023-10-17 00:25:00,SystemResetWarning,0834.7,5.00,000.00,028.4,026.8,000.0,036.8,030.1,14.6,0000.0,0015.95,0003.71,0002.39
2023-10-17 00:26:00,SystemResetWarning,0834.9,5.00,000.00,028.4,027.0,000.0,036.8,030.2,14.6,0000.0,0015.63,0003.73,0002.39
2023-10-17 00:27:00,SystemResetWarning,0834.7,5.00,000.00,028.4,027.2,000.0,036.8,030.3,14.6,0000.0,0015.45,0003.75,0002.41
2023-10-17 00:28:00,SystemResetWarning,0834.8,5.00,000.00,028.5,027.4,000.0,036.8,030.3,14.5,0000.0,0015.45,0003.74,0002.42
2023-10-17 00:29:00,SystemResetWarning,0835.0,5.00,000.00,028.5,027.5,000.0,036.8,030.4,14.5,0000.0,0014.59,0003.74,0002.42
2023-10-17 00:30:00,SystemResetWarning,0834.9,4.99,000.00,028.6,027.4,000.0,036.8,030.4,14.4,0000.0,0013.22,0003.75,0002.40
2023-10-17 00:31:00,SystemResetWarning,0835.1,5.00,000.00,028.6,025.7,000.0,036.8,030.2,14.5,0000.0,0012.90,0003.77,0002.40
2023-10-17 00:32:00,SystemResetWarning,0834.8,5.00,000.00,028.4,024.1,000.0,036.7,029.9,14.5,0000.0,0012.85,0003.70,0002.41
2023-10-17 00:33:00,SystemResetWarning,0834.8,5.00,000.00,028.3,024.0,000.0,036.7,029.8,14.6,0000.0,0011.69,0003.67,0002.39
2023-10-17 00:34:00,SystemResetWarning,0834.7,5.01,000.00,028.2,024.3,000.0,036.7,029.6,14.7,0000.0,0011.43,0003.64,0002.38
2023-10-17 00:35:00,SystemResetWarning,0834.6,5.00,000.00,028.2,024.7,000.0,036.7,029.6,14.8,0000.0,0011.01,0003.64,0002.38
2023-10-17 00:36:00,SystemResetWarning,0835.1,5.00,000.00,028.1,025.2,000.0,036.7,029.7,14.8,0000.0,0010.17,0003.61,0002.38
2023-10-17 00:37:00,SystemResetWarning,0835.0,4.99,000.00,028.1,025.6,000.0,036.7,029.8,14.8,0000.0,0010.32,0003.60,0002.37
2023-10-17 00:38:00,SystemResetWarning,0835.0,5.00,000.00,028.2,026.0,000.0,036.7,029.8,14.8,0000.0,0010.95,0003.64,0002.34
2023-10-17 00:39:00,SystemResetWarning,0834.9,5.00,000.00,028.2,026.3,000.0,036.7,029.9,14.7,0000.0,0011.45,0003.60,0002.32
2023-10-17 00:40:00,SystemResetWarning,0834.5,5.01,000.00,028.2,026.6,000.0,036.7,030.0,14.6,0000.0,0011.64,0003.58,0002.32
2023-10-17 00:41:00,SystemResetWarning,0834.8,4.99,000.00,028.2,026.8,000.0,036.7,030.0,14.6,0000.0,0012.64,0003.57,0002.34
2023-10-17 00:42:00,SystemResetWarning,0834.9,4.99,000.00,028.3,027.0,000.0,036.7,030.1,14.6,0000.0,0012.59,0003.55,0002.35
2023-10-17 00:43:00,SystemResetWarning,0835.0,5.00,000.00,028.3,027.2,000.0,036.7,030.2,14.6,0000.0,0012.12,0003.59,0002.36
2023-10-17 00:44:00,SystemResetWarning,0835.0,5.00,000.00,028.4,027.3,000.0,036.7,030.2,14.5,0000.0,0012.41,0003.62,0002.35
2023-10-17 00:45:00,SystemResetWarning,0834.8,5.00,000.00,028.4,027.4,000.0,036.7,030.3,14.5,0000.0,0012.68,0003.62,0002.36
2023-10-17 00:46:00,SystemResetWarning,0834.9,5.00,000.00,028.5,027.5,000.0,036.8,030.3,14.5,0000.0,0013.61,0003.60,0002.37
2023-10-17 00:47:00,SystemResetWarning,0835.0,5.00,000.00,028.5,027.6,000.0,036.8,030.4,14.4,0000.0,0013.64,0003.61,0002.38
2023-10-17 00:48:00,SystemResetWarning,0834.8,5.01,000.00,028.6,027.6,000.0,036.8,030.4,14.4,0000.0,0014.11,0003.67,0002.38
2023-10-17 00:49:00,SystemResetWarning,0834.9,4.98,000.00,028.6,025.9,000.0,036.8,030.3,14.4,0000.0,0014.33,0003.61,0002.40
2023-10-17 00:50:00,SystemResetWarning,0835.0,5.01,000.00,028.5,024.0,000.0,036.7,030.0,14.4,0000.0,0013.91,0003.59,0002.40
2023-10-17 00:51:00,SystemResetWarning,0835.1,5.01,000.00,028.4,023.7,000.0,036.7,029.9,14.5,0000.0,0013.69,0003.60,0002.41
2023-10-17 00:52:00,SystemResetWarning,0835.1,5.00,000.00,028.2,024.0,000.0,036.7,029.6,14.6,0000.0,0013.56,0003.64,0002.40
2023-10-17 00:53:00,SystemResetWarning,0835.0,5.00,000.00,028.2,024.5,000.0,036.7,029.6,14.7,0000.0,0013.64,0003.65,0002.40
2023-10-17 00:54:00,SystemResetWarning,0835.1,5.00,000.00,028.1,024.9,000.0,036.7,029.6,14.8,0000.0,0013.57,0003.66,0002.40
2023-10-17 00:55:00,SystemResetWarning,0834.9,4.99,000.00,028.1,025.4,000.0,036.7,029.7,14.8,0000.0,0012.92,0003.67,0002.41
2023-10-17 00:56:00,SystemResetWarning,0835.0,5.00,000.00,028.1,025.8,000.0,036.7,029.8,14.8,0000.0,0012.90,0003.70,0002.44
2023-10-17 00:57:00,SystemResetWarning,0835.1,5.00,000.00,028.1,026.1,000.0,036.6,029.8,14.8,0000.0,0011.89,0003.70,0002.45
2023-10-17 00:58:00,SystemResetWarning,0835.1,5.00,000.00,028.2,026.4,000.0,036.7,029.9,14.8,0000.0,0011.17,0003.70,0002.45
2023-10-17 00:59:00,SystemResetWarning,0835.0,5.00,000.00,028.2,026.6,000.0,036.7,029.9,14.7,0000.0,0011.01,0003.76,0002.46
